Stations météo

réclame
Mon MeteoGroup
Lecce, Italie (16332): Température de l'air & dewpoint: 16.06.2018 19:00:00 - 22.06.2018 19:00:00 (CEST)Lecce, Italie (16332): Vitesse du vent: 16.06.2018 19:00:00 - 22.06.2018 19:00:00 (CEST)Lecce, Italie (16332): Direction du vent: 16.06.2018 19:00:00 - 22.06.2018 19:00:00 (CEST)Lecce, Italie (16332): reduced air pressure: 16.06.2018 19:00:00 - 22.06.2018 19:00:00 (CEST)Lecce, Italie (16332): visibility: 16.06.2018 19:00:00 - 22.06.2018 19:00:00 (CEST)
Date & Time tt [°C] td [°C] ff [km/h] ff [knt] dd ppp [hPa] vv [km]
22.06.2018 19:00:00 - - - - - - -
22.06.2018 18:00:00 28,0 14,0 16 9 SW - 10
22.06.2018 17:00:00 29,4 13,6 18 10 SW 1011,3 10
22.06.2018 16:00:00 29,0 14,0 16 9 SW - 10
22.06.2018 15:00:00 29,0 17,0 21 11 SW - 10
22.06.2018 14:00:00 29,0 16,2 21 11 SW 1012,5 10
22.06.2018 13:00:00 29,0 16,0 16 9 WSW - 10
22.06.2018 12:00:00 28,0 16,0 15 8 SW - 10
22.06.2018 11:00:00 28,4 18,2 11 6 WSW 1013,5 10
22.06.2018 10:00:00 27,0 18,0 13 7 WSW - 10
22.06.2018 09:00:00 26,0 18,0 11 6 WSW - 10
22.06.2018 08:00:00 25,0 20,0 9 5 SW 1013,8 10
22.06.2018 07:00:00 22,0 21,0 5 3 S - 10
22.06.2018 06:00:00 20,0 19,0 5 3 SSE - 10
22.06.2018 05:00:00 20,0 19,2 8 4 S 1013,8 10
22.06.2018 04:00:00 20,0 19,0 5 3 - - 10
22.06.2018 03:00:00 21,0 20,0 0 0 N - 10
22.06.2018 02:00:00 20,8 19,6 0 0 N 1014,6 10
22.06.2018 01:00:00 21,0 19,0 0 0 N - 10
22.06.2018 00:00:00 21,0 19,0 0 0 N - 10
21.06.2018 23:00:00 21,4 17,8 4 2 N 1015,2 10
21.06.2018 22:00:00 23,0 18,0 5 3 - - 10
21.06.2018 21:00:00 25,0 18,0 5 3 - - 10
21.06.2018 20:00:00 26,0 17,9 4 2 N 1014,3 10
21.06.2018 19:00:00 26,0 19,0 9 5 N - 10
21.06.2018 18:00:00 27,0 20,0 9 5 NNE - 10
21.06.2018 17:00:00 28,0 20,0 9 5 N 1014,5 10
21.06.2018 16:00:00 27,0 20,0 9 5 W - 10
21.06.2018 15:00:00 28,0 18,0 13 7 N - 10
21.06.2018 14:00:00 29,0 20,2 15 8 NNE 1015,8 10
21.06.2018 13:00:00 29,0 18,0 15 8 NNE - 10
21.06.2018 12:00:00 28,0 18,0 13 7 N - 10
21.06.2018 11:00:00 27,0 19,1 13 7 N 1016,9 10
21.06.2018 10:00:00 25,0 22,0 11 6 N - 10
21.06.2018 09:00:00 24,0 22,0 15 8 WNW - 8
21.06.2018 08:00:00 22,8 21,6 11 6 NNW 1016,5 7
21.06.2018 07:00:00 21,0 21,0 9 5 NNW - 6
21.06.2018 06:00:00 21,0 20,0 9 5 NNW - 5
21.06.2018 05:00:00 20,6 19,8 8 4 NNW 1016,8 7
21.06.2018 04:00:00 21,0 20,0 8 4 WNW - 10
21.06.2018 03:00:00 21,0 20,0 9 5 WNW - 10
21.06.2018 02:00:00 22,2 20,5 9 5 WNW 1017,8 10
21.06.2018 01:00:00 23,0 21,0 8 4 N - 10
21.06.2018 00:00:00 23,0 21,0 5 3 - - 10
20.06.2018 23:00:00 23,8 21,1 4 2 N 1017,8 10
20.06.2018 22:00:00 24,0 21,0 5 3 - - 10
20.06.2018 21:00:00 25,0 19,0 13 7 ENE - 10
20.06.2018 20:00:00 26,0 17,4 5 3 N 1016,6 10
20.06.2018 19:00:00 27,0 17,0 15 8 NNW - 10
20.06.2018 18:00:00 27,0 17,0 15 8 NNW - 10
20.06.2018 17:00:00 27,2 17,1 24 13 WNW 1016,6 10
20.06.2018 16:00:00 28,0 18,0 22 12 W - 10
20.06.2018 15:00:00 28,0 17,0 15 8 W - 10
20.06.2018 14:00:00 30,0 16,1 9 5 ESE 1016,3 10
20.06.2018 13:00:00 31,0 17,0 11 6 SSE - 10
20.06.2018 12:00:00 29,0 18,0 13 7 ENE - 10
20.06.2018 11:00:00 28,8 17,7 13 7 E 1017,0 10
20.06.2018 10:00:00 27,0 20,0 13 7 N - 10
20.06.2018 09:00:00 26,0 20,0 11 6 NNE - 10
20.06.2018 08:00:00 25,0 22,1 11 6 N 1016,7 10
20.06.2018 07:00:00 22,0 21,0 8 4 NNW - 10
20.06.2018 06:00:00 21,0 20,0 9 5 NNW - 10
20.06.2018 05:00:00 20,6 20,0 8 4 NNW 1015,7 10
20.06.2018 04:00:00 22,0 21,0 0 0 N - 10
20.06.2018 03:00:00 22,0 21,0 9 5 NNW - 10
20.06.2018 02:00:00 22,0 21,2 8 4 NNW 1015,5 10
20.06.2018 01:00:00 22,0 21,0 5 3 NNW - 10
20.06.2018 00:00:00 22,0 19,0 5 3 N - 10
19.06.2018 23:00:00 23,0 20,3 5 3 N 1015,4 10
19.06.2018 22:00:00 24,0 20,0 11 6 N - 10
19.06.2018 21:00:00 24,0 19,0 15 8 N - 10
19.06.2018 20:00:00 26,4 15,5 15 8 NNE 1014,3 10
19.06.2018 19:00:00 27,0 16,0 16 9 NE - 10
19.06.2018 18:00:00 28,0 18,0 15 8 NE - 10
19.06.2018 17:00:00 28,0 18,4 24 13 N 1013,3 10
19.06.2018 16:00:00 28,0 18,0 24 13 N - 10
19.06.2018 15:00:00 28,0 18,0 24 13 N - 10
19.06.2018 14:00:00 27,6 17,2 24 13 N 1013,1 10
19.06.2018 13:00:00 28,0 18,0 22 12 NNE - 10
19.06.2018 12:00:00 29,0 19,0 21 11 NNE - 10
19.06.2018 11:00:00 27,8 18,8 21 11 NNE 1012,9 10
19.06.2018 10:00:00 27,0 19,0 21 11 NNE - 10
19.06.2018 09:00:00 27,0 19,0 18 10 N - 10
19.06.2018 08:00:00 25,2 20,0 21 11 N 1011,7 10
19.06.2018 07:00:00 24,0 21,0 16 9 N - 10
19.06.2018 06:00:00 23,0 22,0 8 4 NNW - 10
19.06.2018 05:00:00 23,6 22,4 4 2 WNW 1011,0 10
19.06.2018 04:00:00 23,0 22,0 5 3 N - 10
19.06.2018 03:00:00 23,0 22,0 8 4 NW - 10
19.06.2018 02:00:00 23,4 22,0 5 3 NNW 1011,1 10
19.06.2018 01:00:00 23,0 22,0 4 2 NNW - 10
19.06.2018 00:00:00 23,0 22,0 5 3 NNW - 10
18.06.2018 23:00:00 22,6 21,1 9 5 N 1011,4 10
18.06.2018 22:00:00 23,0 22,0 9 5 N - 10
18.06.2018 21:00:00 24,0 20,0 13 7 N - 10
18.06.2018 20:00:00 25,0 19,2 16 9 N 1010,9 10
18.06.2018 19:00:00 26,0 18,0 21 11 N - 10
18.06.2018 18:00:00 28,0 20,0 21 11 N - 10
18.06.2018 17:00:00 28,4 19,4 18 10 N 1010,1 10
18.06.2018 16:00:00 28,0 20,0 13 7 N - 10
18.06.2018 15:00:00 29,0 20,0 18 10 NNW - 10
18.06.2018 14:00:00 27,6 20,2 15 8 NNW 1010,5 10
18.06.2018 13:00:00 27,0 19,0 21 11 NW - 10
18.06.2018 12:00:00 - - - - - - -
18.06.2018 11:00:00 26,8 20,4 16 9 N 1010,6 10
18.06.2018 10:00:00 25,0 19,0 18 10 NNW - 10
18.06.2018 09:00:00 24,0 20,0 18 10 N - 10
18.06.2018 08:00:00 22,2 18,4 15 8 NW 1010,7 10
18.06.2018 07:00:00 20,0 18,0 9 5 NW - 10
18.06.2018 06:00:00 18,0 17,0 0 0 N - 10
18.06.2018 05:00:00 17,8 17,0 0 0 N 1010,8 10
18.06.2018 04:00:00 19,0 18,0 0 0 N - 10
18.06.2018 03:00:00 20,0 19,0 0 0 N - 10
18.06.2018 02:00:00 19,8 19,0 8 4 W 1011,0 10
18.06.2018 01:00:00 20,0 19,0 4 2 - - 10
18.06.2018 00:00:00 20,0 19,0 4 2 - - 10
17.06.2018 23:00:00 20,0 18,8 8 4 WNW 1011,4 10
17.06.2018 22:00:00 21,0 20,0 8 4 NW - 10
17.06.2018 21:00:00 23,0 20,0 5 3 N - 10
17.06.2018 20:00:00 24,6 17,8 11 6 N 1010,5 10
17.06.2018 19:00:00 25,0 18,0 15 8 N - 10
17.06.2018 18:00:00 28,0 18,0 18 10 N - 10
17.06.2018 17:00:00 27,8 17,7 21 11 NNW 1009,7 10
17.06.2018 16:00:00 27,0 18,0 11 6 NW - 10
17.06.2018 15:00:00 24,0 19,0 18 10 SW - 10
17.06.2018 14:00:00 26,6 18,5 16 9 N 1010,2 10
17.06.2018 13:00:00 26,0 18,0 22 12 N - 10
17.06.2018 12:00:00 26,0 19,0 18 10 N - 10
17.06.2018 11:00:00 25,8 18,5 18 10 N 1010,4 10
17.06.2018 10:00:00 25,0 18,0 21 11 NNW - 10
17.06.2018 09:00:00 23,0 18,0 8 4 NNW - 10
17.06.2018 08:00:00 18,6 17,3 4 2 N 1010,4 10
17.06.2018 07:00:00 18,0 17,0 5 3 - - 10
17.06.2018 06:00:00 18,0 17,0 8 4 W - 10
17.06.2018 05:00:00 18,8 16,8 9 5 W 1010,2 10
17.06.2018 04:00:00 19,0 18,0 11 6 W - 10
17.06.2018 03:00:00 19,0 17,0 13 7 W - 10
17.06.2018 02:00:00 19,2 17,9 9 5 W 1010,4 10
17.06.2018 01:00:00 19,0 18,0 11 6 W - 10
17.06.2018 00:00:00 20,0 18,0 4 2 - - 10
16.06.2018 23:00:00 20,4 18,7 8 4 WNW 1010,2 10
16.06.2018 22:00:00 20,0 19,0 9 5 WNW - 10
16.06.2018 21:00:00 22,0 19,0 13 7 NNW - 10
16.06.2018 20:00:00 22,6 16,9 18 10 NNW 1008,2 10
16.06.2018 19:00:00 24,0 17,0 22 12 NNW - 10

tt = Température de l'air
td = dewpoint
ff = Vitesse du vent
dd = Direction du vent
ppp = reduced air pressure
vv = visibility

stations d'obs. à proximité